Temp
-31 -32 -32 -32 -32 -32 -32 -32 -32 -32 -32 -32 -32 -32 -32 -32 -32 -32 -32 -32 -31 -31 -31 -31 -31 -31 -31 -31 -30 -30 -30 -29 -29 -29 -29 -28 -28 -28 -28 -28 -27 -27
-32 -32 -32 -33 -33 -33 -33 -33 -33 -33 -33 -33 -33 -33 -33 -33 -33 -33 -33 -33 -33 -33 -33 -33 -32 -32 -32 -32 -32 -32 -31 -31 -31 -31 -30 -30 -30 -29 -29 -29 -28 -28
-33 -33 -33 -33 -33 -33 -33 -33 -33 -33 -33 -33 -33 -33 -33 -33 -33 -33 -33 -33 -33 -33 -33 -33 -33 -33 -33 -33 -33 -33 -33 -33 -32 -32 -32 -32 -31 -31 -31 -30 -30 -30
-33 -33 -33 -33 -33 -33 -33 -33 -33 -33 -33 -34 -34 -34 -34 -34 -33 -33 -33 -33 -33 -33 -34 -34 -34 -34 -34 -34 -34 -33 -33 -33 -33 -33 -33 -33 -33 -32 -32 -32 -32 -31
-33 -34 -34 -34 -34 -34 -34 -34 -34 -34 -34 -34 -34 -34 -34 -34 -34 -34 -34 -34 -34 -34 -34 -34 -34 -34 -34 -34 -34 -34 -34 -34 -34 -34 -33 -33 -33 -33 -33 -33 -33 -33
-34 -34 -34 -34 -34 -34 -34 -34 -34 -34 -34 -34 -34 -34 -34 -34 -34 -34 -34 -34 -34 -34 -34 -34 -34 -34 -34 -34 -34 -34 -34 -34 -34 -34 -34 -34 -34 -34 -33 -33 -33 -33
-34 -34 -34 -34 -34 -34 -34 -35 -35 -35 -35 -35 -35 -35 -35 -35 -34 -34 -34 -34 -34 -34 -34 -34 -34 -34 -34 -34 -34 -34 -34 -34 -34 -34 -34 -34 -34 -34 -34 -34 -34 -33
-35 -35 -35 -35 -35 -35 -35 -35 -35 -35 -35 -35 -35 -35 -35 -35 -35 -35 -35 -35 -35 -35 -35 -35 -35 -35 -35 -34 -34 -34 -34 -34 -34 -34 -34 -34 -34 -34 -34 -34 -34 -34
-35 -35 -35 -35 -36 -36 -36 -36 -36 -36 -36 -36 -37 -37 -37 -37 -37 -37 -37 -37 -37 -36 -36 -36 -36 -36 -36 -36 -35 -35 -35 -35 -35 -34 -34 -34 -34 -34 -34 -34 -34 -34
-36 -36 -36 -36 -36 -36 -37 -37 -37 -37 -38 -38 -38 -38 -38 -38 -38 -38 -38 -38 -37 -37 -37 -37 -37 -37 -37 -36 -36 -36 -36 -36 -36 -35 -35 -35 -34 -34 -34 -34 -34 -34
-36 -36 -37 -37 -37 -37 -38 -38 -38 -39 -39 -39 -39 -39 -38 -38 -38 -38 -38 -38 -38 -38 -38 -37 -37 -37 -37 -37 -37 -37 -37 -37 -36 -36 -36 -36 -35 -35 -35 -35 -34 -34
-37 -37 -37 -38 -38 -39 -39 -39 -39 -39 -39 -39 -39 -39 -39 -39 -39 -39 -38 -38 -38 -38 -38 -38 -37 -37 -37 -37 -37 -37 -37 -37 -37 -37 -36 -36 -36 -36 -36 -36 -35 -35
-37 -37 -38 -39 -39 -39 -39 -39 -39 -39 -39 -39 -39 -39 -39 -39 -39 -39 -39 -39 -38 -38 -38 -38 -38 -38 -38 -38 -38 -38 -38 -37 -37 -37 -37 -37 -37 -37 -36 -36 -36 -36
-38 -38 -39 -39 -40 -40 -40 -40 -40 -40 -39 -39 -39 -39 -39 -39 -39 -39 -39 -39 -39 -38 -38 -38 -38 -38 -38 -38 -38 -38 -38 -38 -38 -38 -38 -37 -37 -37 -37 -37 -37 -37
-39 -39 -40 -40 -40 -40 -40 -40 -40 -40 -40 -40 -40 -40 -40 -40 -40 -40 -39 -39 -39 -39 -38 -38 -38 -38 -39 -39 -39 -39 -39 -38 -38 -38 -38 -38 -38 -38 -38 -37 -37 -37
-39 -40 -40 -40 -40 -40 -40 -40 -40 -40 -40 -40 -40 -40 -40 -40 -40 -40 -40 -40 -39 -39 -39 -39 -39 -39 -39 -39 -39 -39 -39 -39 -39 -38 -38 -38 -38 -38 -38 -38 -38 -38
-40 -40 -40 -40 -40 -40 -40 -40 -40 -40 -40 -41 -41 -41 -41 -41 -41 -41 -40 -40 -40 -39 -39 -39 -40 -40 -40 -40 -40 -40 -39 -39 -39 -39 -39 -39 -39 -39 -39 -39 -39 -39
-40 -40 -40 -40 -40 -40 -40 -40 -40 -41 -41 -41 -41 -41 -41 -41 -41 -41 -41 -41 -40 -40 -40 -40 -40 -40 -40 -40 -40 -40 -40 -40 -40 -39 -39 -39 -40 -40 -40 -40 -40 -40
-40 -40 -40 -40 -40 -40 -41 -41 -41 -41 -41 -41 -41 -41 -41 -41 -41 -41 -41 -41 -41 -40 -40 -41 -41 -41 -41 -41 -41 -41 -42 -41 -41 -40 -40 -40 -41 -41 -41 -41 -41 -41
-41 -41 -41 -41 -41 -41 -41 -41 -41 -41 -41 -41 -41 -41 -41 -41 -41 -41 -41 -41 -41 -41 -41 -41 -42 -42 -42 -42 -42 -42 -43 -43 -42 -42 -42 -42 -42 -42 -42 -42 -42 -42
-41 -41 -41 -41 -41 -41 -41 -41 -41 -41 -41 -41 -41 -41 -41 -41 -41 -41 -42 -42 -42 -41 -41 -42 -42 -43 -43 -43 -43 -43 -43 -43 -43 -43 -43 -43 -43 -43 -43 -43 -43 -43
-41 -41 -41 -41 -41 -41 -41 -41 -41 -41 -41 -41 -41 -41 -41 -41 -41 -42 -42 -42 -42 -42 -42 -42 -43 -43 -43 -43 -44 -44 -44 -44 -44 -44 -44 -44 -44 -44 -44 -44 -43 -43
-41 -41 -41 -41 -41 -41 -41 -41 -41 -41 -41 -41 -41 -41 -41 -41 -42 -42 -42 -42 -42 -42 -42 -42 -43 -44 -44 -44 -44 -44 -44 -44 -44 -44 -44 -44 -44 -44 -44 -44 -44 -44
-41 -41 -41 -41 -41 -41 -41 -41 -41 -41 -41 -41 -41 -41 -41 -42 -42 -42 -42 -42 -42 -42 -43 -43 -43 -44 -44 -44 -44 -44 -45 -45 -45 -44 -44 -45 -45 -44 -44 -44 -44 -45
-41 -41 -41 -41 -41 -41 -41 -41 -41 -41 -41 -41 -41 -41 -41 -42 -42 -42 -42 -43 -43 -43 -43 -43 -44 -44 -44 -44 -44 -44 -45 -45 -45 -45 -45 -45 -45 -44 -44 -45 -45 -44
-41 -41 -41 -41 -41 -41 -41 -41 -41 -41 -41 -41 -41 -41 -41 -42 -42 -42 -43 -43 -43 -43 -43 -44 -44 -44 -44 -44 -44 -44 -45 -45 -45 -45 -45 -44 -44 -44 -45 -45 -45 -44
Height
5436 5432 5428 5424 5420 5416 5412 5409 5406 5403 5400 5396 5393 5391 5389 5387 5384 5381 5378 5376 5374 5372 5369 5368 5366 5364 5363 5361 5360 5360 5360 5360 5359 5359 5359 5359 5360 5360 5361 5362 5362 5364
5425 5421 5417 5413 5409 5405 5401 5398 5394 5391 5388 5385 5381 5378 5376 5374 5372 5368 5366 5363 5361 5358 5356 5353 5351 5349 5348 5346 5345 5344 5344 5344 5343 5343 5342 5343 5342 5342 5344 5345 5345 5346
5414 5410 5406 5402 5398 5394 5390 5387 5383 5379 5376 5373 5370 5366 5364 5361 5359 5356 5354 5351 5349 5346 5343 5341 5338 5336 5334 5332 5331 5330 5329 5329 5329 5328 5327 5327 5326 5326 5327 5328 5329 5330
5402 5398 5394 5390 5386 5383 5379 5375 5372 5368 5364 5361 5358 5354 5351 5348 5346 5343 5341 5338 5336 5333 5331 5328 5326 5323 5321 5319 5317 5316 5316 5314 5314 5313 5311 5312 5312 5311 5312 5312 5313 5315
5391 5387 5383 5379 5375 5371 5367 5363 5360 5356 5353 5349 5345 5342 5339 5335 5333 5330 5327 5325 5322 5319 5317 5314 5312 5309 5307 5305 5304 5303 5302 5300 5299 5298 5297 5298 5297 5296 5297 5297 5298 5300
5381 5377 5373 5368 5364 5360 5356 5352 5348 5345 5341 5337 5333 5330 5326 5323 5320 5317 5314 5311 5308 5305 5302 5300 5297 5295 5292 5290 5289 5288 5287 5285 5284 5283 5282 5282 5282 5282 5282 5283 5283 5285
5370 5366 5361 5357 5353 5348 5344 5340 5336 5333 5329 5325 5321 5317 5314 5310 5306 5303 5300 5297 5293 5290 5287 5284 5282 5279 5277 5274 5273 5272 5271 5269 5268 5267 5266 5266 5266 5267 5268 5267 5268 5271
5359 5354 5350 5345 5341 5336 5332 5328 5324 5320 5316 5312 5309 5304 5300 5297 5293 5289 5286 5282 5278 5275 5271 5268 5266 5263 5260 5258 5256 5255 5254 5252 5251 5250 5249 5250 5250 5251 5252 5251 5252 5255
5348 5343 5338 5333 5329 5324 5320 5316 5312 5308 5304 5300 5296 5292 5288 5284 5280 5276 5272 5267 5264 5260 5256 5253 5250 5247 5244 5241 5239 5237 5235 5234 5233 5232 5231 5233 5233 5235 5236 5235 5236 5239
5337 5332 5327 5322 5318 5314 5310 5306 5302 5298 5293 5289 5285 5281 5277 5273 5268 5263 5259 5254 5249 5245 5241 5238 5234 5230 5227 5225 5221 5219 5217 5215 5214 5213 5213 5214 5216 5217 5219 5219 5220 5223
5326 5322 5317 5312 5308 5304 5300 5296 5293 5288 5284 5280 5276 5271 5267 5262 5257 5251 5246 5241 5236 5231 5227 5223 5218 5214 5211 5208 5204 5200 5198 5197 5196 5195 5196 5197 5199 5200 5201 5202 5203 5206
5317 5312 5307 5303 5299 5295 5291 5288 5284 5280 5276 5271 5266 5262 5256 5251 5245 5239 5233 5228 5223 5217 5212 5208 5203 5199 5195 5191 5187 5183 5180 5178 5177 5178 5178 5180 5182 5183 5184 5185 5186 5189
5307 5303 5298 5294 5290 5287 5283 5280 5276 5272 5267 5262 5257 5252 5246 5240 5234 5228 5221 5215 5209 5204 5198 5193 5189 5184 5179 5174 5170 5166 5163 5161 5161 5161 5162 5163 5165 5166 5167 5169 5170 5172
5298 5294 5290 5286 5283 5279 5276 5272 5268 5264 5259 5254 5248 5242 5236 5230 5223 5217 5211 5204 5197 5191 5185 5180 5175 5170 5164 5158 5154 5150 5147 5146 5146 5146 5147 5148 5149 5150 5152 5153 5155 5157
5289 5286 5283 5279 5276 5272 5269 5265 5260 5256 5251 5245 5240 5233 5227 5220 5213 5206 5199 5193 5186 5179 5173 5167 5161 5156 5150 5144 5139 5135 5133 5132 5133 5132 5132 5133 5135 5136 5137 5138 5139 5140
5282 5279 5276 5272 5269 5266 5262 5258 5253 5248 5243 5237 5231 5225 5218 5211 5204 5197 5189 5182 5175 5169 5162 5155 5149 5143 5137 5131 5126 5122 5121 5120 5120 5120 5120 5121 5122 5123 5124 5123 5123 5124
5275 5272 5269 5266 5262 5259 5255 5250 5246 5241 5235 5230 5224 5217 5210 5203 5195 5188 5180 5172 5164 5158 5151 5144 5138 5131 5125 5120 5115 5111 5109 5106 5106 5108 5109 5110 5110 5110 5110 5110 5109 5109
5268 5265 5262 5259 5255 5252 5248 5243 5238 5233 5228 5222 5216 5209 5202 5195 5187 5179 5171 5162 5154 5147 5140 5134 5127 5121 5114 5110 5106 5103 5099 5095 5094 5096 5098 5099 5098 5097 5097 5097 5096 5096
5261 5258 5256 5252 5248 5245 5241 5236 5231 5226 5220 5215 5209 5202 5194 5187 5179 5171 5162 5153 5145 5137 5131 5124 5117 5111 5105 5101 5097 5094 5091 5086 5084 5085 5087 5087 5087 5085 5085 5085 5085 5085
5255 5252 5249 5245 5242 5238 5234 5229 5224 5219 5213 5207 5201 5194 5187 5179 5171 5163 5154 5145 5136 5128 5122 5116 5109 5102 5097 5093 5089 5086 5083 5079 5077 5077 5077 5077 5076 5075 5074 5074 5074 5074
5248 5245 5242 5239 5235 5231 5227 5222 5217 5212 5206 5200 5193 5186 5179 5172 5164 5155 5147 5138 5128 5120 5114 5108 5101 5094 5089 5086 5082 5079 5076 5073 5072 5071 5070 5069 5068 5067 5065 5065 5065 5065
5242 5239 5236 5233 5229 5225 5221 5216 5210 5205 5199 5193 5187 5180 5172 5164 5156 5148 5139 5130 5121 5112 5106 5101 5094 5087 5082 5078 5076 5072 5069 5067 5066 5064 5063 5062 5061 5060 5058 5057 5057 5056
5235 5233 5230 5226 5222 5219 5214 5210 5204 5199 5193 5186 5180 5173 5166 5157 5149 5141 5132 5122 5113 5105 5098 5093 5087 5081 5075 5072 5070 5067 5063 5061 5059 5058 5057 5056 5055 5053 5052 5051 5051 5049
5229 5226 5223 5220 5216 5212 5208 5203 5198 5192 5186 5180 5173 5166 5159 5151 5143 5135 5126 5116 5107 5098 5090 5084 5080 5075 5070 5067 5066 5063 5059 5056 5053 5052 5051 5050 5048 5047 5046 5046 5045 5043
5223 5220 5217 5213 5210 5206 5201 5197 5191 5185 5179 5173 5166 5159 5153 5145 5136 5128 5120 5110 5100 5092 5084 5077 5073 5069 5064 5061 5061 5059 5055 5051 5048 5046 5045 5044 5042 5041 5041 5040 5038 5037
5217 5214 5211 5207 5204 5200 5195 5190 5184 5178 5172 5166 5160 5153 5146 5138 5130 5122 5114 5104 5095 5086 5079 5071 5067 5064 5059 5056 5055 5054 5051 5046 5043 5040 5039 5037 5037 5036 5035 5034 5032 5031
Wind_Speed
79 79 80 81 81 82 83 84 84 85 86 87 87 88 89 89 89 90 91 92 93 94 95 96 97 98 99 100 101 102 103 103 104 105 105 106 106 106 107 107 107 107
74 74 74 75 75 76 77 78 78 79 79 80 81 81 82 82 82 83 83 84 85 86 87 88 89 90 91 92 93 94 95 96 97 99 100 101 102 103 103 104 105 106
73 73 73 74 74 75 75 76 76 77 77 78 79 79 80 80 80 80 81 81 81 82 83 83 84 85 86 87 88 88 89 90 90 92 93 94 95 96 97 98 100 101
73 73 74 74 75 75 76 76 77 77 78 78 79 80 80 81 81 81 82 82 82 83 83 84 84 85 85 86 86 87 87 87 87 88 89 89 90 91 91 92 93 94
73 74 74 75 75 76 77 77 77 78 79 79 80 81 81 82 82 83 83 84 84 85 85 86 86 87 87 87 88 88 88 88 88 88 88 88 88 88 88 88 89 89
73 74 74 75 76 77 77 78 78 79 80 80 81 82 82 83 84 84 85 85 86 87 87 88 88 89 89 89 90 89 89 90 90 90 90 89 89 89 88 88 88 88
74 74 75 75 76 76 77 77 78 78 79 80 80 81 82 83 84 84 85 86 87 88 89 90 90 91 91 92 92 92 92 92 92 92 92 92 91 91 90 90 89 89
74 74 74 75 75 75 76 76 76 76 77 77 78 79 80 80 82 83 84 85 86 87 89 90 91 92 93 93 94 94 95 95 95 95 95 94 94 93 93 93 92 91
74 74 74 73 73 73 73 73 73 73 73 74 74 75 76 77 78 79 80 81 82 83 85 86 87 88 89 91 92 93 94 95 96 97 97 97 96 96 95 95 94 93
73 72 72 71 71 70 70 69 69 68 68 69 69 70 72 73 74 76 77 79 80 81 82 83 84 85 86 87 88 90 91 92 93 94 96 96 97 97 97 97 97 95
72 71 70 69 68 66 65 63 63 63 64 65 67 69 70 72 74 75 77 78 79 80 81 82 83 83 84 85 86 87 88 89 90 91 92 93 94 95 96 97 98 97
70 69 67 65 63 61 59 59 59 60 63 65 67 69 70 72 73 74 75 76 77 78 79 79 80 80 81 82 83 84 85 86 87 88 89 89 90 91 92 94 95 96
68 66 63 60 57 55 55 56 58 61 63 65 67 68 69 70 70 71 72 74 75 75 76 76 76 77 77 78 79 81 82 83 83 83 84 85 86 87 88 90 91 92
64 60 57 54 53 53 54 56 58 61 63 65 66 67 68 68 69 70 71 72 73 73 74 74 74 74 74 75 76 77 78 79 78 79 79 79 80 81 82 84 85 87
58 54 51 50 51 52 54 56 58 61 63 65 66 67 68 68 69 70 71 72 72 72 72 72 72 71 71 72 73 73 74 74 74 74 74 74 75 75 76 77 79 81
52 49 48 48 50 52 54 56 58 61 63 64 66 67 68 69 69 70 71 72 72 71 71 70 69 68 68 69 69 70 70 70 70 69 69 69 69 69 70 71 73 75
48 46 47 48 50 52 53 56 58 60 62 64 66 68 69 70 70 71 72 72 72 70 69 68 66 65 65 65 65 66 66 66 66 65 64 64 63 63 64 66 68 70
46 45 46 48 50 52 53 56 58 60 62 64 66 68 69 70 71 71 72 72 71 70 68 66 64 62 62 61 61 61 61 62 62 60 58 57 56 57 58 59 61 64
45 45 47 48 50 52 53 55 58 60 62 65 66 68 70 70 71 72 72 72 71 69 67 64 61 60 59 58 58 57 56 57 57 55 53 51 50 51 52 53 54 56
44 45 47 49 50 52 53 55 58 60 63 65 67 69 70 71 71 72 72 72 71 68 66 62 59 58 57 56 55 54 54 54 54 52 49 48 47 47 48 48 48 49
44 45 47 49 50 52 53 55 58 60 63 65 67 69 70 71 71 71 72 71 70 67 64 60 57 56 55 54 53 52 52 51 50 48 46 45 44 44 44 44 44 45
44 45 47 48 50 51 53 55 58 60 63 65 67 69 70 71 71 71 71 71 69 66 63 58 55 54 54 52 51 50 49 47 45 44 43 42 40 40 41 41 41 41
43 45 46 48 49 51 52 55 58 60 63 65 67 68 69 70 70 70 71 70 67 65 62 57 54 52 51 50 47 46 45 43 42 41 40 39 38 38 38 38 38 39
43 44 46 48 49 51 53 55 58 61 63 65 67 68 69 69 69 69 69 69 66 63 60 57 53 50 49 47 44 41 41 41 41 40 39 37 37 37 36 36 36 38
42 44 46 48 49 51 53 56 58 61 63 65 66 68 68 68 68 68 68 67 64 61 58 55 52 48 47 46 42 38 38 39 40 39 38 37 38 37 35 35 36 37
42 43 46 48 50 52 54 57 59 61 63 65 66 67 67 67 67 67 67 65 62 59 55 53 50 47 46 45 42 37 36 38 39 39 38 37 36 34 33 33 34 35
Wind_Direction
287 286 286 285 285 284 284 284 283 283 282 282 281 281 280 280 279 279 279 278 278 277 277 276 276 275 275 274 274 273 272 272 271 270 270 269 268 268 267 266 266 265
289 288 287 287 286 286 286 285 285 284 284 283 283 283 282 281 281 281 280 280 279 279 278 278 277 276 276 275 274 274 273 273 272 271 270 270 269 269 268 267 266 266
290 289 289 288 288 287 286 286 286 285 285 284 284 284 283 283 282 281 281 280 280 279 279 278 278 277 277 276 275 274 274 273 272 272 271 270 269 269 268 268 267 266
292 291 290 290 289 289 288 288 287 287 286 286 285 285 284 284 283 282 282 281 280 280 279 278 278 277 276 276 275 274 274 273 272 271 271 270 269 269 268 267 267 266
294 293 292 292 291 290 290 289 288 288 287 286 286 285 285 284 284 283 282 281 281 280 279 278 277 277 276 275 274 274 273 273 272 271 270 269 269 268 267 267 266 266
295 294 293 292 291 291 290 289 289 288 287 287 286 286 285 285 284 284 283 282 281 280 280 279 278 277 276 275 274 273 273 272 271 270 270 269 268 267 266 266 265 265
296 295 294 293 293 292 291 290 290 289 289 288 288 287 286 286 285 284 284 283 282 281 280 279 278 277 276 275 274 273 272 271 270 270 269 268 267 266 265 265 264 263
298 297 297 296 295 294 293 293 292 291 291 290 290 289 289 288 287 287 286 285 284 283 281 280 279 278 277 276 274 273 272 271 270 269 268 267 266 266 265 264 263 263
300 299 298 298 297 296 295 295 294 294 293 293 292 292 292 291 291 290 289 288 287 285 284 283 281 280 278 277 275 274 272 271 270 269 267 266 266 265 264 264 263 262
302 301 300 299 298 297 297 296 296 296 295 295 295 295 295 295 294 293 292 291 290 288 287 285 283 282 280 278 277 275 273 271 270 268 267 266 265 264 263 263 262 262
303 302 301 300 299 298 298 297 297 298 298 298 298 298 298 298 297 296 295 293 292 291 289 287 286 284 282 280 278 276 274 272 271 269 267 266 265 264 263 262 261 261
303 302 301 300 299 298 298 299 299 300 301 301 302 302 302 301 300 299 298 296 295 293 292 290 288 286 284 282 280 278 276 274 272 270 268 267 265 264 263 262 261 260
303 302 301 300 299 299 300 301 302 303 304 305 305 305 305 304 303 302 301 300 299 297 295 293 291 289 287 284 282 279 277 275 273 272 270 268 266 265 263 262 261 260
303 301 300 299 299 300 302 303 305 306 307 308 309 309 309 308 307 307 305 304 303 301 299 297 294 292 289 286 283 281 278 277 275 273 272 270 268 267 265 263 262 261
302 300 299 299 300 302 304 306 308 310 311 312 313 313 313 313 312 311 310 308 307 305 302 300 297 294 291 288 285 282 280 278 277 275 273 272 270 269 267 265 263 261
301 299 299 300 302 304 306 308 311 312 314 315 316 316 316 316 315 315 313 312 310 308 305 302 299 296 293 289 287 285 283 281 279 277 275 273 272 270 269 267 265 263
299 299 300 301 303 305 307 310 312 314 316 317 318 318 319 318 318 317 316 315 313 311 308 305 301 298 294 291 289 287 285 283 281 279 277 275 274 271 269 267 265 263
299 299 301 303 304 306 309 311 313 315 317 318 319 320 320 321 321 320 319 317 316 313 311 307 304 300 296 294 291 289 288 286 284 282 280 278 276 273 270 267 265 263
299 300 302 304 306 308 310 312 314 316 318 319 320 321 322 322 322 322 321 320 318 316 313 310 306 302 298 296 293 291 290 288 287 286 284 282 279 276 272 269 267 264
300 301 304 306 307 309 311 313 315 317 319 320 321 322 323 324 324 323 323 322 320 317 315 312 308 303 300 297 295 293 291 289 289 289 288 286 283 280 277 273 270 267
300 303 305 306 308 309 312 314 316 318 320 321 322 323 324 325 325 324 324 323 321 319 316 313 309 304 300 298 296 294 292 291 292 292 290 288 286 284 281 278 275 272
301 304 306 307 309 311 313 315 317 319 321 322 323 324 325 325 325 325 325 325 323 320 318 314 309 304 301 299 298 296 295 295 295 293 292 290 289 287 284 282 279 276
302 305 307 309 310 312 314 316 318 320 321 323 324 325 326 326 326 327 327 326 324 321 318 314 309 304 302 300 299 299 298 297 296 294 293 292 290 287 285 283 281 279
302 306 308 310 312 314 316 318 319 320 322 324 325 326 326 327 327 328 328 327 325 322 318 314 309 305 302 302 302 301 300 298 296 295 294 292 289 286 285 284 281 279
302 306 309 311 313 315 317 319 320 321 323 324 325 326 327 328 328 329 330 329 326 323 318 313 310 307 304 304 305 305 303 300 297 295 294 291 289 287 286 284 280 277
302 306 310 312 314 316 318 320 321 322 324 325 326 327 328 328 329 330 331 330 327 323 318 313 310 308 306 306 309 309 306 302 299 297 294 291 289 288 285 281 277 275